Regional Weather Roundup
Issued by NWS

Home | Current Version | Previous Version | Graphics & Text | Print | Product List | Glossary On
Versions: 1 2 3 4 5 6 7 8 9 10 11 12 13 14 15 16 17 18 19 20 21 22 23 24 25 26 27
000
ASUS45 KCYS 230510
RWRWY

WYOMING REGIONAL WEATHER ROUNDUP
NATIONAL WEATHER SERVICE CHEYENNE WY
1100 PM MDT MON MAY 22 2017

NOTE:  "FAIR" INDICATES FEW OR NO CLOUDS BELOW 12,000 FEET
WITH NO SIGNIFICANT WEATHER AND/OR OBSTRUCTIONS TO VISIBILITY.

WYZ001-230600-
YELLOWSTONE NATIONAL PARK

CITY           SKY/WX    TMP DP  RH WIND       PRES   REMARKS
LK YELLOWSTONE   N/A     34  30  85 N3        30.37F
W YELLOWSTONE  NOT AVBL

$$
WYZ002>013-054>058-071-098>099-230600-
NORTHERN WYOMING

CITY           SKY/WX    TMP DP  RH WIND       PRES   REMARKS
JACKSON        FAIR      45  34  65 N9        30.31S
CODY           FAIR      46  37  71 E6        30.28S
GREYBULL       FAIR      50  39  66 NW13      30.22S
WORLAND        MOCLDY    45  41  86 E8        30.24R
SHERIDAN       FAIR      42  37  82 W5        30.24R
BUFFALO        MOCLDY    47  35  63 N3        30.26R
GILLETTE       CLOUDY    42  41  96 SW6       30.21S
HULETT         FAIR      43  36  75 CALM      30.21S
NEWCASTLE      FAIR      39  36  87 CALM      30.21R

$$
WYZ014>020-022>026-101>103-230600-
CENTRAL WYOMING

CITY           SKY/WX    TMP DP  RH WIND       PRES   REMARKS
BIG PINEY      MOCLDY    45  35  68 S14       30.34R
PINEDALE       FAIR      41  30  65 NW12      30.32R
DUBOIS         FAIR      34  32  93 CALM      30.34R
LANDER         FAIR      42  33  70 W12       30.30R
RIVERTON       FAIR      44  36  73 N13       30.30R
CASPER         MOCLDY    40  38  93 SW8       30.28R WCI  34
DOUGLAS        LGT RAIN  44  37  76 NW10G21   30.25F

$$
WYZ021-027>030-104>119-230600-
SOUTHERN WYOMING

CITY           SKY/WX    TMP DP  RH WIND       PRES   REMARKS
EVANSTON       MOCLDY    47  38  71 E15       30.31R
KEMMERER         N/A     43  32  65 E13G18    30.36R
FORT BRIDGER   CLOUDY    45  34  65 SE15G22   30.38R
ROCK SPRINGS   CLOUDY    40  35  83 S7        30.34S
DIXON            N/A     38  35  87 NW7       30.36R WCI  33
RAWLINS        CLOUDY    36  34  92 E10       30.35R WCI  28
SARATOGA       RAIN      36  36 100 NE6       30.35R WCI  31
LARAMIE        CLOUDY    36  33  89 NW15      30.29R WCI  27
CHEYENNE       MOCLDY    40  34  79 NW7       30.25R
TORRINGTON     FAIR      42  37  82 NW7       30.20R

$$




USA.gov is the U.S. government's official web portal to all federal, state and local government web resources and services.